Find Starlink 35329

NORAD ID: 65908 Int'l Des: 2025-224 Owner: SPXS Country: US Constellation: starlink operational
LEOCIRCULAR

リアルタイム位置

3D地球を読み込み中...

Starlink 35329について

説明を読み込み中...

次回通過

Passes for default location (London). Set your location on the main map for personalized predictions.

高度履歴

Loading altitude history...

軌道要素

1 65908U 25224AC 26105.97735684 .00010275 00000-0 35852-3 0 9997
2 65908 53.1629 198.1089 0000630 109.4304 250.6765 15.30202488 30571
Epoch: Apr 15, 2026 • Age: 20 hours

現在のステータス

高度 476.2 km
速度 7.63 km/s
衛星直下点 -0.18°S, 51.56°E
打ち上げ日 Oct 7, 2025
運用期間 0.5 years
タイプ internet

技術仕様

分類 Payload
質量 575.00 kg
乾燥質量 530.00 kg
総質量 575.00 kg
長さ 0.30 m
直径 4.10 m
スパン 29.00 m
形状 Box + pan
製造者 SPXS
バスタイプ Starlink V2MO
フェーズステータス In Orbit
所有者/国 SPXS/US

Most Searched